Regional Weather Roundup
Issued by NWS Burlington, VT

Home | Current Version | Previous Version | Text Only | Print | Product List | Glossary On
Versions: 1 2 3 4 5 6 7 8 9 10 11 12 13 14 15 16 17 18 19 20 21 22 23 24 25 26 27 28 29 30 31 32 33 34 35 36 37 38 39 40 41 42 43 44 45 46 47 48 49 50
000
ASUS41 KBTV 102230
RWRBTV
VERMONT REGIONAL WEATHER ROUNDUP
NATIONAL WEATHER SERVICE BURLINGTON VT
500 PM EST SAT DEC 10 2016

NOTE: "FAIR" INDICATES FEW OR NO CLOUDS BELOW 12,000 FEET WITH NO
SIGNIFICANT WEATHER AND/OR OBSTRUCTIONS TO VISIBILITY.

* THESE REPORTS ARE NOT UNDER NWS QUALITY CONTROL AND/OR DO NOT
  REPORT WEATHER SUCH AS PRECIPITATION AND FOG.

VTZ001>019-102300-
_____VERMONT_____


CITY           SKY/WX    TMP DP  RH WIND       PRES   REMARKS
BURLINGTON     LGT SNOW  21  15  78 NE3       30.35R
MONTPELIER     PTCLDY    15   5  64 W3        30.30R
MORRISVILLE    CLOUDY    16   9  74 CALM      30.32R
ST. JOHNSBURY*   N/A     18   7  62 MISG      30.29R
LYNDONVILLE*   FAIR      13   7  78 CALM      30.28R
MIDDLEBURY*    MOCLDY    18   7  62 CALM      30.33R
RUTLAND*       PTCLDY    17   6  62 N3        30.31R
SPRINGFIELD    CLEAR     17   5  59 N3        30.32R
HIGHGATE*      MOCLDY    17  10  72 CALM      30.34R
NEWPORT*       FAIR      13   7  76 CALM      30.29R
BENNINGTON     PTCLDY    23   9  55 VRB6      30.30R WCI  16
SUTTON*          N/A     12 N/A N/A MISG        N/A
ISLAND POND*     N/A     12 N/A N/A SW1         N/A
GALLUP MILLS*    N/A     10 N/A N/A MISG        N/A
UNION VILLAGE*   N/A     14 N/A N/A MISG        N/A
MT. MANSFIELD*   N/A      5 N/A N/A NW28        N/A  WCI -18

_____LAKE CHAMPLAIN_____


CITY           SKY/WX    TMP DP  RH WIND       PRES   REMARKS
BURTON ISLAND*   N/A     25  14  63 W7          N/A  WCI  17
COLCHESTER RF*   N/A     25  16  68 NE6         N/A  WCI  18
DIAMOND ISL*     N/A     25  16  68 NW12        N/A  WCI  14

$$

NYZ007-026>031-035-052-083-087-102300-
_____NORTHERN NEW YORK_____


CITY           SKY/WX    TMP DP  RH WIND       PRES   REMARKS
PLATTSBURGH    CLOUDY    20  12  71 CALM      30.34R
SARANAC LAKE   CLOUDY    11   5  77 CALM      30.22R
MASSENA        PTCLDY    20   9  62 W5        30.36R WCI  13
OGDENSBURG*    CLEAR     18  12  79 CALM      30.35R
POTSDAM*       CLEAR     19  12  73 CALM      30.34R
STARK FALLS*     N/A     18 N/A N/A S5          N/A  WCI  11
WATERTOWN      CLOUDY    24  17  74 CALM      30.35R
FT DRUM        PTCLDY    18  11  71 CALM      30.31
ALBANY         PTCLDY    25  12  58 NW6       30.36R WCI  18
GLENS FALLS    CLEAR     22   7  52 S3        30.34R

$$
NHZ002-005-011-102300-
_____NEW HAMPSHIRE_____


CITY           SKY/WX    TMP DP  RH WIND       PRES   REMARKS
LEBANON        PTCLDY    16   6  65 CALM      30.31R
KEENE          CLEAR     21   7  54 N3        30.32R
MT WASHINGTON  FOG       -9  -9 100 NW48        N/A  VSB 0   WCI -44
PLYMOUTH         N/A     19   4  54 CALM      30.31R
WHITEFIELD     CLOUDY    17   4  56 NW5       30.27R WCI  10

$$

_____REGIONAL QUEBEC LOCATIONS_____


CITY           SKY/WX    TMP DP  RH WIND       PRES   REMARKS
MONTREAL       PTCLDY    19   7  58 W8        30.34R WCI   9
QUEBEC CITY    MOCLDY    12   5  73 W8        30.29R WCI   1
SHERBROOKE     LGT SNOW  16  10  79 W6        30.27R WCI   7

_____REGIONAL ONTARIO LOCATIONS_____


CITY           SKY/WX    TMP DP  RH WIND       PRES   REMARKS
OTTAWA         PTCLDY    18   9  68 W5        30.33R WCI  11

______KEY______
VSB  - VISIBILITY IN MILES
WCI  - WIND CHILL INDEX
HX   - HEAT INDEX
$$
NNNN



USA.gov is the U.S. government's official web portal to all federal, state and local government web resources and services.